Regional Weather Roundup
Issued by NWS Northern Indiana

Home | Current Version | Previous Version | Text Only | Print | Product List | Glossary On
Versions: 1 2 3 4 5 6 7 8 9 10 11 12 13 14 15 16 17 18 19 20 21 22 23 24 25 26 27 28 29 30 31 32 33 34 35 36 37 38 39 40 41 42 43 44 45 46 47 48 49 50
000
ASUS43 KIWX 031710
RWRIWX

KIWX WEATHER ROUNDUP
NATIONAL WEATHER SERVICE NORTHERN INDIANA
100 PM EDT FRI JUL 03 2015

NOTE: "FAIR" INDICATES FEW OR NO CLOUDS BELOW 12,000 FEET WITH NO
SIGNIFICANT WEATHER AND/OR OBSTRUCTIONS TO VISIBILITY.

* THESE STATIONS ARE NOT UNDER NWS QUALITY CONTROL. THEY ALSO MAY NOT
  REPORT WEATHER SUCH AS PRECIPITATION OR FOG.

INZ001>027-031800-
NORTHERN INDIANA

CITY           SKY/WX    TMP DP  RH WIND       PRES   REMARKS
GARY*          PTSUNNY   70  61  73 NE6       29.98S
VALPARAISO     PTSUNNY   75  57  53 NE7       29.98S
MICHIGAN CITY* CLOUDY    72  54  53 E3        29.98S
LAPORTE*       PTSUNNY   73  56  54 NE8       29.98S
KNOX*          MOSUNNY   73  54  49 NE8       29.96S
SOUTH BEND     PTSUNNY   73  54  51 E8        29.98S
ELKHART*       MOSUNNY   72  55  56 SE6       29.99S
GOSHEN         PTSUNNY   73  55  53 E8        29.98R
MONTICELLO*    MOSUNNY   73  62  69 E6        29.94S
LOGANSPORT*    MOSUNNY   72  55  56 NE6       29.96S
ROCHESTER*     MOSUNNY   73  59  60 E3        29.97S
WARSAW*          N/A     70  57  64 E6        29.97S
ANGOLA*          N/A     72  55  56 SE6       29.98S
FORT WAYNE     CLOUDY    71  57  61 E8        29.97R
HUNTINGTON*    PTSUNNY   72  59  64 E5        29.96S
PERU/GRISSOM   CLOUDY    72  60  67 NE6       29.94F
MARION*        PTSUNNY   71  59  66 NE8       29.95F

$$
INZ028>050-031800-
CENTRAL INDIANA

CITY           SKY/WX    TMP DP  RH WIND       PRES   REMARKS
LAFAYETTE      MOSUNNY   71  61  70 NE7       29.94R
KOKOMO*        PTSUNNY   72  61  68 E6        29.94S
MUNCIE*        MOSUNNY   74  62  66 E9        29.94S
INDIANAPOLIS   PTSUNNY   71  61  70 N9        29.90S

$$
MIZ043>046-050>051-056>058-064>065-071>073-077>080-031800-
SOUTHWEST LOWER MICHIGAN

CITY           SKY/WX    TMP DP  RH WIND       PRES   REMARKS
BATTLE CREEK   PTSUNNY   73  54  51 VRB3      29.99S
BENTON HARBOR  PTSUNNY   71  57  61 VRB6      29.98S
COLDWATER*     PTSUNNY   71  51  50 SE5       29.98S
HILLSDALE*     MOSUNNY   70  50  50 CALM      29.99S
HOLLAND        PTSUNNY   74  50  42 CALM      29.99S
GRAND RAPIDS   PTSUNNY   72  52  49 N3        29.99S
KALAMAZOO      PTSUNNY   71  51  49 VRB3      29.99S
STURGIS*       PTSUNNY   70  54  56 SE5       29.98S
THREE RIVERS*  FAIR      71  54  55 CALM      29.99S

$$
OHZ001>008-015>018-024>025-031800-
NORTHWEST OHIO

CITY           SKY/WX    TMP DP  RH WIND       PRES   REMARKS
DEFIANCE       MOSUNNY   73  56  54 NE8       29.97S
FINDLAY        PTSUNNY   72  56  57 E7        29.96R
TOLEDO EXPRESS PTSUNNY   72  55  55 E9        29.97S
TOLEDO METCALF PTSUNNY   71  56  58 NE7       29.98R
LIMA           CLOUDY    71  59  65 E7        29.96S

$$
AND FOR LAKE MICHIGAN COASTAL AND OPEN LAKE BUOY OBSERVATIONS

STATION/POSITION TEMP    WIND        PRES    VSBY  WAVE
                 AIR SEA DIR/SP/G                  HT/PER
                 (F)     (DEG/KT/KT) (MB)    (MI)  (FT/S)
CALUMET HARBOR    65      20/  6/  8   N/A
MICHIGAN CITY     64     340/  7/  8   N/A
BURNS HARBOR      64      10/  8/  9 1015.6S
SAINT JOSEPH      63     360/  8/  9   N/A
4 MI NW BRIDGMAN  63 63                N/A           1
MICHIGAN CITY     63 64   10/  8/ 10   N/A           1/ 4

$$
&&


USA.gov is the U.S. government's official web portal to all federal, state and local government web resources and services.